Regional Weather Roundup
Issued by NWS Cleveland, OH

Home | Current Version | Previous Version | Graphics & Text | Print | Product List | Glossary On
Versions: 1 2 3 4 5 6 7 8 9 10 11 12 13 14 15 16 17 18 19 20 21 22 23 24 25 26 27 28 29 30 31 32 33 34 35 36 37 38 39 40 41 42 43 44 45 46 47 48 49 50
000
ASUS41 KCLE 061200
RWRCLE
OHIO REGIONAL WEATHER ROUNDUP
NATIONAL WEATHER SERVICE WILMINGTON, OH
700 AM EST SAT FEB 06 2016

NOTE: "FAIR" INDICATES FEW OR NO CLOUDS BELOW 12,000 FEET WITH NO
SIGNIFICANT WEATHER AND/OR OBSTRUCTIONS TO VISIBILITY.

OHZ001>008-015>018-024>027-034-035-043-044-061300-
   NORTHWEST OHIO

CITY           SKY/WX    TMP DP  RH WIND       PRES   REMARKS
DEFIANCE       FAIR      25  21  85 CALM      30.32R FOG
FINDLAY        FAIR      25  22  88 SW7       30.30S FOG     WCI  17
TOLEDO EXPRESS FAIR      23  20  88 W3        30.30R
TOLEDO EXEC    FAIR      24  20  84 SW6       30.31S FOG     WCI  17
LIMA           FAIR      24  22  91 S3        30.30S FOG
$$

OHZ009>014-019>023-028>033-038-089-061300-
   NORTHEAST OHIO

CITY           SKY/WX    TMP DP  RH WIND       PRES   REMARKS
CLE-HOPKINS    FAIR      25  22  88 SW8       30.32R WCI  16
CLE-LAKEFRONT  CLOUDY    31  25  78 SW14      30.30R WCI  21
CUY CO. ARPT   CLOUDY    30  27  86 W12       30.29  WCI  21
LORAIN-ELYRIA  FAIR      25  21  85 W6        30.30R WCI  18
ASHTABULA      FAIR      27  20  75 SW5       30.27R WCI  22
AKRON-CANTON   FAIR      27  19  72 W8        30.28R WCI  19
WOOSTER        NOT AVBL
MANSFIELD      FAIR      24  22  91 SW3       30.28S
YOUNGSTOWN     FAIR      30  17  58 SW9       30.26R WCI  22
$$

OHZ042-051>053-060>062-070>072-077>081-061300-
  SOUTHWEST OHIO

CITY           SKY/WX    TMP DP  RH WIND       PRES   REMARKS
CINC-COVINGTON FAIR      25  22  88 CALM      30.34R
CINC-LUNKEN    FAIR      24  24 100 CALM      30.38R FOG
HAMILTON       FAIR      21  19  92 CALM      30.36S
DAYTON         NOT AVBL
WRIGHT-PAT AFB CLEAR     19  17  90 CALM      30.32F
DAYTON GENERAL FAIR      24  20  84 CALM      30.32S FOG
WILMINGTON     FAIR      24  21  88 NW6       30.32R WCI  17
$$

OHZ036-037-039>041-045>050-054>059-063>069-073>076-082>088-061300-
  CENTRAL AND SOUTHEAST OHIO

CITY           SKY/WX    TMP DP  RH WIND       PRES   REMARKS
COLUMBUS       FAIR      26  20  77 CALM      30.33R
OSU AIRPORT    FAIR      25  22  88 SW3       30.32S
BOLTON FIELD   NOT AVBL
RICKENBACK AFB NOT AVBL
NEWARK         FAIR      24  18  77 CALM      30.32R
MARION         FAIR      25  19  78 SW3       30.31S HAZE
LANCASTER      FAIR      25  19  78 S3        30.32S
ZANESVILLE     FAIR      30  15  53 SW5       30.32R WCI  25
NEW PHILLY     FAIR      27  18  69 CALM      30.32R
$$



USA.gov is the U.S. government's official web portal to all federal, state and local government web resources and services.